Location: *
(43.9905°S, 176.4941°W)
Time: 11:59:33
(UTC+00:00)

Meteor 2-8 Rocket - Pass Details

Date: 08 December 2019
Orbit: 936 x 958 km, 82.5° (Epoch: 19 January)

Event Time Altitude Azimuth Distance (km) Brightness Sun altitude
Rises 08:30:47 0° 354° (N) 3,598 7.1 -10.8°
Reaches altitude 10° 08:33:15 10° 354° (N) 2,664 6.4 -11.1°
Maximum altitude 08:39:22 88° 80° (E) 964 4.5 -11.8°
Drops below altitude 10° 08:45:36 10° 171° (S) 2,712 7.4 -12.5°
Sets 08:48:07 0° 171° (S) 3,668 8.2 -12.8°
